QPF
0.06 0.09 0.07 0.04 0.04 0.03 0.04 0.05 0.05 0.06 0.06 0.05 0.02 0.01 0.01 0.01 0.02 0.01 0.01 0.02 0.01 0.01 0.01 0.01 0.01 0.00 0.01 0.01 0.01 0.01 0.00 0.00 0.00 0.01 0.01 0.01 0.02 0.02
0.09 0.10 0.09 0.06 0.06 0.04 0.04 0.04 0.04 0.04 0.04 0.02 0.02 0.01 0.02 0.02 0.05 0.02 0.03 0.05 0.04 0.03 0.02 0.01 0.01 0.01 0.00 0.00 0.00 0.00 0.00 0.00 0.00 0.00 0.01 0.01 0.02 0.02
0.11 0.12 0.12 0.10 0.09 0.07 0.06 0.06 0.07 0.07 0.07 0.03 0.03 0.03 0.05 0.04 0.05 0.04 0.03 0.04 0.05 0.06 0.03 0.02 0.01 0.01 0.01 0.00 0.00 0.00 0.00 0.00 0.00 0.00 0.00 0.01 0.01 0.01
0.12 0.14 0.14 0.13 0.13 0.10 0.11 0.11 0.12 0.12 0.11 0.09 0.07 0.06 0.08 0.08 0.10 0.07 0.03 0.03 0.03 0.06 0.04 0.03 0.02 0.01 0.01 0.00 0.00 0.00 0.01 0.01 0.01 0.01 0.01 0.01 0.01 0.01
0.14 0.15 0.18 0.19 0.18 0.17 0.14 0.12 0.11 0.10 0.12 0.12 0.08 0.08 0.07 0.07 0.10 0.08 0.05 0.06 0.04 0.05 0.05 0.04 0.02 0.01 0.01 0.01 0.01 0.01 0.01 0.01 0.01 0.01 0.01 0.01 0.00 0.00
0.16 0.18 0.20 0.20 0.19 0.18 0.15 0.13 0.11 0.11 0.13 0.11 0.08 0.08 0.09 0.09 0.11 0.11 0.10 0.09 0.09 0.07 0.07 0.05 0.03 0.02 0.02 0.01 0.01 0.01 0.01 0.01 0.01 0.01 0.01 0.00 0.00 0.00
0.20 0.18 0.17 0.18 0.19 0.17 0.15 0.15 0.14 0.14 0.14 0.13 0.11 0.12 0.11 0.11 0.11 0.11 0.11 0.09 0.08 0.06 0.06 0.05 0.04 0.05 0.06 0.07 0.07 0.05 0.03 0.02 0.02 0.01 0.01 0.01 0.01 0.01
0.22 0.22 0.21 0.21 0.20 0.18 0.18 0.16 0.14 0.13 0.13 0.13 0.11 0.10 0.11 0.11 0.11 0.11 0.11 0.11 0.10 0.08 0.08 0.07 0.06 0.08 0.10 0.12 0.12 0.09 0.06 0.04 0.03 0.03 0.03 0.03 0.02 0.03
0.20 0.21 0.19 0.17 0.15 0.12 0.13 0.14 0.12 0.12 0.11 0.10 0.10 0.08 0.08 0.09 0.10 0.10 0.10 0.10 0.10 0.08 0.10 0.10 0.08 0.08 0.08 0.08 0.07 0.05 0.03 0.03 0.02 0.02 0.02 0.02 0.02 0.02
0.18 0.17 0.16 0.14 0.14 0.15 0.14 0.14 0.12 0.13 0.12 0.10 0.08 0.08 0.08 0.07 0.07 0.07 0.09 0.09 0.09 0.08 0.09 0.08 0.06 0.05 0.05 0.05 0.05 0.04 0.03 0.03 0.02 0.02 0.02 0.02 0.02 0.02
0.13 0.15 0.15 0.14 0.16 0.17 0.16 0.16 0.15 0.15 0.12 0.10 0.09 0.08 0.07 0.06 0.06 0.06 0.07 0.07 0.06 0.06 0.06 0.06 0.04 0.03 0.03 0.03 0.03 0.03 0.04 0.04 0.03 0.03 0.02 0.02 0.01 0.01
0.10 0.12 0.14 0.13 0.12 0.13 0.15 0.16 0.16 0.15 0.15 0.12 0.10 0.07 0.05 0.04 0.04 0.04 0.05 0.06 0.05 0.04 0.04 0.05 0.05 0.05 0.05 0.03 0.03 0.03 0.03 0.03 0.02 0.02 0.01 0.01 0.01 0.01
0.08 0.09 0.09 0.10 0.10 0.10 0.09 0.10 0.10 0.09 0.09 0.09 0.08 0.08 0.07 0.06 0.05 0.05 0.05 0.06 0.07 0.06 0.06 0.06 0.06 0.06 0.06 0.05 0.04 0.03 0.04 0.04 0.04 0.03 0.02 0.02 0.02 0.02
0.08 0.08 0.07 0.07 0.06 0.06 0.05 0.06 0.06 0.06 0.06 0.07 0.07 0.06 0.05 0.05 0.05 0.05 0.05 0.07 0.09 0.08 0.07 0.06 0.06 0.05 0.05 0.04 0.03 0.02 0.02 0.03 0.04 0.04 0.04 0.05 0.05 0.04
0.04 0.05 0.05 0.04 0.04 0.03 0.04 0.05 0.05 0.05 0.06 0.07 0.07 0.07 0.06 0.05 0.04 0.04 0.04 0.05 0.06 0.07 0.06 0.06 0.05 0.05 0.05 0.04 0.03 0.02 0.02 0.02 0.02 0.03 0.03 0.05 0.06 0.06
0.04 0.04 0.04 0.05 0.05 0.04 0.04 0.04 0.03 0.04 0.04 0.04 0.04 0.04 0.03 0.02 0.02 0.02 0.03 0.03 0.04 0.04 0.03 0.03 0.03 0.03 0.03 0.03 0.03 0.03 0.03 0.03 0.03 0.03 0.03 0.04 0.04 0.06
0.04 0.03 0.02 0.03 0.03 0.03 0.02 0.03 0.03 0.02 0.02 0.02 0.02 0.02 0.02 0.02 0.01 0.01 0.02 0.03 0.03 0.02 0.02 0.01 0.02 0.02 0.02 0.03 0.03 0.03 0.04 0.04 0.04 0.04 0.04 0.04 0.04 0.05
0.04 0.03 0.02 0.02 0.02 0.02 0.02 0.02 0.02 0.02 0.02 0.02 0.01 0.01 0.01 0.01 0.01 0.01 0.02 0.02 0.02 0.02 0.02 0.02 0.02 0.02 0.02 0.03 0.03 0.03 0.03 0.03 0.03 0.04 0.04 0.04 0.04 0.03
0.03 0.02 0.02 0.02 0.01 0.01 0.01 0.01 0.02 0.02 0.01 0.01 0.01 0.02 0.02 0.02 0.02 0.02 0.02 0.02 0.02 0.02 0.02 0.02 0.02 0.02 0.03 0.03 0.03 0.03 0.03 0.03 0.03 0.03 0.03 0.03 0.03 0.04
0.01 0.01 0.02 0.02 0.02 0.02 0.01 0.01 0.01 0.01 0.01 0.01 0.01 0.01 0.01 0.01 0.01 0.01 0.01 0.01 0.01 0.01 0.02 0.03 0.02 0.02 0.02 0.03 0.02 0.02 0.02 0.03 0.03 0.03 0.03 0.03 0.04 0.04
0.01 0.01 0.01 0.01 0.01 0.01 0.01 0.01 0.01 0.01 0.01 0.00 0.00 0.00 0.01 0.01 0.01 0.01 0.01 0.01 0.01 0.02 0.02 0.02 0.02 0.01 0.01 0.02 0.02 0.03 0.03 0.02 0.01 0.02 0.03 0.04 0.05 0.03
0.01 0.01 0.01 0.01 0.01 0.00 0.00 0.00 0.00 0.00 0.00 0.00 0.00 0.00 0.00 0.01 0.01 0.01 0.01 0.02 0.02 0.02 0.02 0.02 0.01 0.01 0.02 0.03 0.03 0.03 0.02 0.02 0.02 0.01 0.02 0.04 0.04 0.03
0.00 0.00 0.00 0.00 0.00 0.00 0.00 0.00 0.00 0.00 0.00 0.00 0.00 0.00 0.00 0.01 0.01 0.01 0.01 0.02 0.01 0.01 0.01 0.01 0.01 0.01 0.02 0.02 0.02 0.02 0.02 0.03 0.04 0.04 0.03 0.02 0.01 0.01
MSLP
1014.81 1015.09 1015.38 1015.67 1015.96 1016.24 1016.48 1016.68 1016.83 1016.91 1016.93 1016.89 1016.79 1016.66 1016.51 1016.36 1016.23 1016.15 1016.12 1016.14 1016.23 1016.36 1016.52 1016.70 1016.86 1017.00 1017.10 1017.18 1017.24 1017.29 1017.35 1017.44 1017.56 1017.72 1017.90 1018.10 1018.29 1018.45
1014.14 1014.42 1014.72 1015.05 1015.39 1015.75 1016.10 1016.43 1016.72 1016.95 1017.11 1017.20 1017.19 1017.11 1016.98 1016.80 1016.61 1016.44 1016.30 1016.21 1016.19 1016.22 1016.29 1016.40 1016.51 1016.61 1016.70 1016.76 1016.81 1016.86 1016.91 1016.98 1017.09 1017.22 1017.38 1017.56 1017.73 1017.88
1013.45 1013.78 1014.13 1014.51 1014.93 1015.38 1015.85 1016.31 1016.74 1017.12 1017.42 1017.63 1017.72 1017.71 1017.60 1017.42 1017.19 1016.94 1016.70 1016.51 1016.36 1016.28 1016.25 1016.27 1016.31 1016.35 1016.40 1016.44 1016.47 1016.50 1016.53 1016.59 1016.68 1016.79 1016.92 1017.06 1017.21 1017.33
1012.83 1013.22 1013.65 1014.12 1014.63 1015.18 1015.76 1016.34 1016.89 1017.39 1017.81 1018.12 1018.31 1018.36 1018.28 1018.10 1017.85 1017.54 1017.23 1016.94 1016.69 1016.49 1016.35 1016.27 1016.22 1016.19 1016.18 1016.18 1016.18 1016.18 1016.20 1016.24 1016.30 1016.38 1016.49 1016.60 1016.71 1016.80
1012.33 1012.82 1013.34 1013.90 1014.51 1015.15 1015.81 1016.48 1017.12 1017.71 1018.20 1018.59 1018.83 1018.93 1018.89 1018.72 1018.46 1018.13 1017.76 1017.39 1017.05 1016.76 1016.52 1016.33 1016.19 1016.08 1016.00 1015.94 1015.90 1015.87 1015.86 1015.88 1015.92 1015.98 1016.05 1016.13 1016.20 1016.25
1012.05 1012.63 1013.24 1013.88 1014.56 1015.26 1015.98 1016.69 1017.36 1017.98 1018.50 1018.91 1019.19 1019.32 1019.30 1019.15 1018.90 1018.56 1018.17 1017.76 1017.36 1016.99 1016.67 1016.39 1016.15 1015.96 1015.81 1015.68 1015.59 1015.52 1015.48 1015.47 1015.49 1015.53 1015.57 1015.62 1015.65 1015.66
1012.03 1012.67 1013.35 1014.05 1014.76 1015.49 1016.20 1016.90 1017.55 1018.13 1018.63 1019.03 1019.30 1019.43 1019.43 1019.30 1019.07 1018.75 1018.37 1017.96 1017.53 1017.12 1016.74 1016.38 1016.07 1015.80 1015.57 1015.38 1015.23 1015.12 1015.04 1015.00 1015.00 1015.01 1015.03 1015.04 1015.04 1015.02
1012.28 1012.97 1013.67 1014.38 1015.09 1015.78 1016.44 1017.07 1017.64 1018.15 1018.57 1018.91 1019.14 1019.25 1019.26 1019.16 1018.97 1018.69 1018.35 1017.96 1017.55 1017.12 1016.71 1016.31 1015.94 1015.60 1015.30 1015.04 1014.83 1014.68 1014.56 1014.49 1014.46 1014.44 1014.44 1014.42 1014.39 1014.32
1012.80 1013.48 1014.16 1014.84 1015.49 1016.11 1016.67 1017.19 1017.64 1018.03 1018.35 1018.60 1018.77 1018.86 1018.87 1018.80 1018.65 1018.43 1018.15 1017.81 1017.44 1017.03 1016.61 1016.19 1015.78 1015.40 1015.04 1014.73 1014.47 1014.26 1014.10 1013.99 1013.92 1013.87 1013.84 1013.79 1013.72 1013.61
1013.52 1014.15 1014.78 1015.39 1015.95 1016.45 1016.90 1017.28 1017.59 1017.85 1018.05 1018.20 1018.30 1018.36 1018.37 1018.33 1018.23 1018.08 1017.88 1017.61 1017.29 1016.93 1016.53 1016.11 1015.68 1015.26 1014.87 1014.51 1014.20 1013.94 1013.74 1013.58 1013.47 1013.38 1013.30 1013.21 1013.10 1012.95
1014.36 1014.92 1015.47 1015.98 1016.43 1016.82 1017.14 1017.38 1017.56 1017.69 1017.78 1017.85 1017.89 1017.92 1017.93 1017.92 1017.87 1017.79 1017.65 1017.46 1017.21 1016.89 1016.53 1016.13 1015.70 1015.27 1014.85 1014.46 1014.11 1013.80 1013.55 1013.34 1013.17 1013.03 1012.89 1012.75 1012.58 1012.38
1015.23 1015.71 1016.17 1016.58 1016.93 1017.21 1017.41 1017.54 1017.62 1017.65 1017.66 1017.65 1017.65 1017.66 1017.68 1017.69 1017.69 1017.66 1017.58 1017.45 1017.25 1016.99 1016.67 1016.29 1015.88 1015.45 1015.01 1014.60 1014.21 1013.86 1013.56 1013.29 1013.06 1012.85 1012.64 1012.42 1012.19 1011.93
1016.06 1016.45 1016.82 1017.15 1017.42 1017.61 1017.73 1017.79 1017.79 1017.76 1017.72 1017.68 1017.66 1017.66 1017.68 1017.70 1017.73 1017.73 1017.69 1017.60 1017.44 1017.22 1016.93 1016.58 1016.19 1015.77 1015.34 1014.91 1014.49 1014.11 1013.75 1013.42 1013.11 1012.82 1012.53 1012.23 1011.91 1011.58
1016.79 1017.11 1017.41 1017.67 1017.87 1018.01 1018.09 1018.11 1018.09 1018.04 1017.98 1017.94 1017.91 1017.91 1017.92 1017.95 1017.98 1017.99 1017.96 1017.89 1017.75 1017.55 1017.28 1016.95 1016.58 1016.17 1015.74 1015.31 1014.87 1014.45 1014.04 1013.65 1013.26 1012.88 1012.49 1012.10 1011.70 1011.29
1017.40 1017.66 1017.90 1018.12 1018.29 1018.41 1018.47 1018.49 1018.48 1018.44 1018.40 1018.36 1018.34 1018.34 1018.35 1018.36 1018.37 1018.36 1018.32 1018.23 1018.08 1017.88 1017.62 1017.31 1016.95 1016.56 1016.14 1015.70 1015.25 1014.80 1014.34 1013.88 1013.42 1012.94 1012.46 1011.98 1011.49 1010.99
1017.90 1018.11 1018.32 1018.50 1018.66 1018.78 1018.86 1018.90 1018.91 1018.91 1018.89 1018.87 1018.86 1018.85 1018.84 1018.83 1018.80 1018.75 1018.67 1018.54 1018.37 1018.15 1017.88 1017.57 1017.22 1016.84 1016.43 1016.00 1015.54 1015.06 1014.56 1014.04 1013.50 1012.94 1012.38 1011.80 1011.22 1010.64
1018.34 1018.51 1018.69 1018.86 1019.01 1019.13 1019.23 1019.30 1019.35 1019.38 1019.40 1019.40 1019.39 1019.36 1019.32 1019.26 1019.18 1019.07 1018.93 1018.75 1018.53 1018.28 1018.00 1017.69 1017.35 1016.98 1016.58 1016.15 1015.68 1015.18 1014.64 1014.07 1013.47 1012.85 1012.20 1011.54 1010.89 1010.24
1018.77 1018.91 1019.07 1019.22 1019.37 1019.50 1019.62 1019.71 1019.79 1019.84 1019.87 1019.88 1019.86 1019.81 1019.72 1019.61 1019.46 1019.28 1019.07 1018.83 1018.57 1018.29 1017.99 1017.67 1017.33 1016.97 1016.58 1016.15 1015.68 1015.17 1014.61 1014.01 1013.36 1012.68 1011.97 1011.26 1010.54 1009.84
1019.25 1019.38 1019.51 1019.65 1019.79 1019.93 1020.05 1020.16 1020.24 1020.30 1020.33 1020.32 1020.27 1020.18 1020.04 1019.87 1019.65 1019.40 1019.12 1018.83 1018.52 1018.21 1017.89 1017.57 1017.23 1016.88 1016.50 1016.08 1015.62 1015.11 1014.54 1013.91 1013.24 1012.53 1011.79 1011.03 1010.28 1009.54
1019.84 1019.95 1020.07 1020.19 1020.32 1020.45 1020.57 1020.67 1020.75 1020.79 1020.80 1020.76 1020.67 1020.52 1020.32 1020.08 1019.79 1019.48 1019.14 1018.80 1018.46 1018.12 1017.79 1017.47 1017.14 1016.80 1016.44 1016.04 1015.59 1015.09 1014.52 1013.90 1013.22 1012.50 1011.75 1010.99 1010.22 1009.46
1020.52 1020.63 1020.75 1020.86 1020.98 1021.10 1021.20 1021.28 1021.34 1021.35 1021.32 1021.23 1021.08 1020.88 1020.61 1020.30 1019.95 1019.57 1019.19 1018.81 1018.44 1018.09 1017.76 1017.45 1017.14 1016.82 1016.48 1016.11 1015.68 1015.20 1014.66 1014.06 1013.40 1012.70 1011.97 1011.21 1010.45 1009.69
1021.29 1021.41 1021.53 1021.65 1021.76 1021.87 1021.95 1022.01 1022.03 1022.00 1021.92 1021.77 1021.56 1021.28 1020.95 1020.56 1020.15 1019.73 1019.30 1018.89 1018.51 1018.16 1017.84 1017.54 1017.26 1016.97 1016.67 1016.33 1015.94 1015.50 1015.00 1014.44 1013.82 1013.16 1012.47 1011.75 1011.01 1010.28
1022.09 1022.23 1022.36 1022.49 1022.61 1022.71 1022.79 1022.82 1022.80 1022.73 1022.59 1022.37 1022.09 1021.74 1021.33 1020.88 1020.41 1019.94 1019.48 1019.05 1018.66 1018.32 1018.01 1017.74 1017.49 1017.24 1016.98 1016.69 1016.35 1015.97 1015.52 1015.02 1014.47 1013.87 1013.23 1012.57 1011.88 1011.18
Thickness
5745 5745 5744 5746 5747 5748 5747 5744 5736 5728 5730 5739 5743 5748 5747 5745 5743 5740 5738 5736 5733 5730 5728 5726 5723 5721 5719 5716 5714 5712 5710 5708 5706 5705 5703 5702 5701 5699
5744 5743 5743 5744 5744 5745 5745 5744 5741 5735 5729 5736 5738 5742 5743 5742 5739 5737 5735 5733 5731 5728 5726 5724 5721 5719 5716 5714 5712 5709 5707 5705 5702 5701 5699 5698 5696 5695
5742 5741 5740 5741 5740 5740 5740 5739 5738 5735 5728 5731 5735 5737 5736 5735 5733 5732 5731 5729 5728 5726 5724 5722 5719 5716 5713 5711 5708 5705 5703 5700 5698 5696 5695 5693 5691 5689
5739 5738 5736 5737 5736 5735 5735 5734 5732 5732 5727 5723 5726 5728 5729 5728 5727 5726 5726 5725 5724 5722 5721 5718 5715 5711 5708 5706 5703 5701 5698 5695 5693 5690 5688 5687 5685 5683
5736 5734 5733 5732 5730 5730 5728 5727 5726 5726 5724 5721 5719 5721 5721 5722 5720 5719 5719 5718 5718 5717 5715 5712 5709 5706 5703 5700 5698 5695 5692 5689 5687 5684 5683 5681 5679 5677
5731 5730 5728 5727 5725 5724 5723 5721 5720 5718 5716 5714 5712 5712 5712 5714 5712 5709 5708 5709 5709 5710 5707 5704 5702 5699 5697 5694 5692 5689 5686 5683 5680 5678 5676 5674 5672 5670
5723 5722 5721 5720 5719 5718 5717 5714 5713 5710 5708 5705 5703 5703 5702 5701 5699 5700 5697 5698 5699 5698 5696 5695 5694 5691 5689 5687 5684 5681 5678 5675 5673 5670 5668 5666 5664 5661
5716 5715 5714 5713 5712 5710 5709 5707 5705 5702 5700 5697 5695 5692 5691 5691 5690 5689 5687 5685 5684 5687 5684 5683 5685 5682 5681 5680 5677 5674 5670 5667 5665 5662 5659 5656 5654 5651
5708 5707 5707 5706 5704 5703 5701 5699 5697 5695 5693 5691 5687 5685 5682 5682 5680 5679 5677 5674 5673 5675 5674 5672 5673 5671 5671 5670 5668 5664 5661 5658 5655 5652 5649 5646 5643 5640
5699 5698 5697 5696 5696 5694 5693 5691 5689 5687 5686 5683 5681 5678 5675 5673 5672 5670 5668 5667 5667 5666 5665 5660 5660 5658 5660 5659 5656 5654 5650 5647 5643 5640 5637 5634 5631 5629
5689 5688 5687 5686 5685 5686 5685 5682 5680 5677 5676 5674 5672 5669 5666 5663 5661 5659 5656 5654 5651 5651 5651 5647 5646 5646 5646 5645 5643 5640 5637 5634 5630 5627 5624 5621 5619 5616
5680 5678 5676 5676 5676 5676 5676 5674 5670 5668 5666 5665 5662 5659 5656 5653 5650 5647 5643 5640 5637 5635 5636 5632 5631 5629 5629 5630 5628 5625 5622 5620 5618 5615 5612 5609 5606 5603
5672 5668 5666 5665 5666 5665 5664 5662 5659 5658 5657 5655 5652 5649 5646 5643 5639 5636 5632 5628 5623 5620 5621 5618 5615 5613 5610 5611 5611 5610 5609 5607 5605 5603 5600 5597 5594 5590
5662 5659 5656 5655 5655 5654 5652 5650 5649 5647 5646 5643 5639 5635 5633 5630 5627 5624 5621 5617 5614 5610 5608 5605 5601 5598 5595 5594 5594 5595 5594 5592 5591 5589 5587 5585 5582 5579
5651 5648 5646 5645 5644 5643 5640 5638 5637 5635 5632 5628 5625 5622 5620 5617 5614 5611 5608 5605 5602 5599 5596 5593 5589 5586 5583 5580 5580 5579 5578 5578 5576 5574 5572 5570 5569 5567
5641 5639 5637 5635 5633 5632 5629 5627 5624 5621 5618 5615 5611 5609 5607 5604 5600 5597 5594 5590 5587 5585 5582 5580 5577 5573 5571 5569 5567 5566 5564 5563 5562 5560 5559 5557 5556 5555
5632 5632 5630 5627 5624 5621 5618 5614 5611 5608 5605 5601 5598 5594 5592 5589 5585 5582 5578 5576 5572 5570 5568 5566 5564 5561 5559 5557 5555 5553 5551 5550 5549 5547 5546 5545 5543 5542
5623 5621 5618 5615 5611 5608 5605 5601 5597 5593 5590 5587 5584 5580 5577 5573 5570 5567 5564 5561 5558 5556 5554 5552 5550 5548 5546 5545 5542 5540 5538 5536 5536 5534 5533 5532 5531 5530
5611 5608 5604 5601 5598 5595 5592 5588 5584 5580 5576 5573 5569 5565 5562 5560 5557 5554 5551 5548 5545 5542 5541 5539 5537 5533 5530 5529 5529 5527 5525 5524 5524 5523 5522 5521 5520 5519
5600 5596 5592 5588 5585 5581 5578 5574 5570 5567 5563 5559 5555 5552 5549 5546 5543 5540 5538 5535 5532 5530 5528 5526 5523 5519 5516 5515 5515 5516 5515 5513 5513 5512 5512 5511 5510 5508
5587 5583 5579 5575 5572 5568 5564 5561 5557 5554 5549 5546 5542 5538 5535 5533 5529 5527 5525 5523 5520 5519 5516 5513 5511 5509 5508 5506 5505 5505 5505 5503 5501 5500 5501 5501 5500 5499
5575 5571 5566 5562 5558 5555 5551 5548 5544 5540 5536 5533 5529 5526 5523 5520 5517 5515 5513 5511 5509 5507 5504 5503 5502 5500 5498 5496 5495 5495 5495 5494 5493 5492 5491 5489 5488 5488
5562 5558 5554 5550 5546 5542 5538 5534 5531 5526 5522 5518 5515 5513 5511 5508 5506 5505 5503 5501 5499 5497 5494 5493 5492 5490 5489 5488 5487 5486 5487 5487 5486 5485 5483 5482 5481 5480